カタログに戻る

SL-12 R/B(2)

運用中MEO
NORAD 23048·ROCKET BODY·🇷🇺 Russia

打ち上げ Apr 11, 1994 から Baikonur Cosmodrome

Loading…

次のパス (今後24時間)

TLE

最新Source: Space-Track

元期: Sep 14, 2026, 06:16 UTC

1 23048U 94021F   26257.26112424 -.00000031  00000-0  00000-0 0  9992
2 23048  63.9069 296.6529 0014986 223.5772 133.2153  2.13316822252620

AllMySatでSL-12 R/B(2)をリアルタイム追跡

Download on the App Store